PHEMG EHSE-EHSE

Flight info

Callsign PHEMG
Flight time 0h 34m
Altitude 1500
Route VFR
Aircraft DA40/L-SDGRY/S

Departure

Time 2026-04-18 19:32
Airport Breda International Airport (EHSE)

Arrival

Time 2026-04-18 20:06
Airport Breda International Airport (EHSE)
Time Latitude Longitude Altitude Speed Heading
2026-04-18 19:15 51.55473 4.54974 31 ft 0 kts 337°
2026-04-18 19:18 51.55478 4.55044 31 ft 14 kts 101°
2026-04-18 19:18 51.55503 4.55179 31 ft 12 kts 70°
2026-04-18 19:19 51.55539 4.55304 31 ft 14 kts 65°
2026-04-18 19:19 51.55588 4.55471 31 ft 12 kts 66°
2026-04-18 19:19 51.55605 4.55560 31 ft 3 kts 135°
2026-04-18 19:19 51.55603 4.55561 31 ft 0 kts 155°
2026-04-18 19:28 51.55600 4.55564 31 ft 0 kts 154°
2026-04-18 19:30 51.55584 4.55577 29 ft 11 kts 163°
2026-04-18 19:31 51.55497 4.55322 31 ft 53 kts 249°
2026-04-18 19:31 51.55306 4.54734 231 ft 60 kts 242°
2026-04-18 19:31 51.55047 4.54193 406 ft 65 kts 231°
2026-04-18 19:31 51.54671 4.53679 545 ft 77 kts 221°
2026-04-18 19:32 51.54118 4.53724 661 ft 98 kts 127°
2026-04-18 19:32 51.54112 4.54814 677 ft 111 kts 68°
2026-04-18 19:32 51.54389 4.56006 746 ft 116 kts 64°
2026-04-18 19:32 51.54779 4.57164 773 ft 117 kts 50°
2026-04-18 19:33 51.55386 4.57227 703 ft 93 kts 327°
2026-04-18 19:33 51.55714 4.56401 537 ft 93 kts 267°
2026-04-18 19:33 51.55507 4.55496 487 ft 82 kts 246°
2026-04-18 19:33 51.55270 4.54775 629 ft 65 kts 243°
2026-04-18 19:34 51.54979 4.54117 630 ft 91 kts 208°
2026-04-18 19:34 51.54475 4.54590 651 ft 100 kts 95°
2026-04-18 19:34 51.54687 4.55642 650 ft 102 kts 62°
2026-04-18 19:34 51.54992 4.56703 498 ft 105 kts 61°
2026-04-18 19:35 51.55276 4.57652 414 ft 85 kts 46°
2026-04-18 19:35 51.55703 4.57500 335 ft 77 kts 302°
2026-04-18 19:35 51.55830 4.56654 203 ft 74 kts 259°
2026-04-18 19:35 51.55660 4.55938 58 ft 64 kts 244°
2026-04-18 19:36 51.55500 4.55336 33 ft 64 kts 248°
2026-04-18 19:36 51.55301 4.54757 247 ft 60 kts 234°
2026-04-18 19:36 51.55052 4.54170 363 ft 75 kts 234°
2026-04-18 19:36 51.54690 4.53500 569 ft 84 kts 218°
2026-04-18 19:37 51.54222 4.53890 693 ft 99 kts 93°
2026-04-18 19:37 51.54464 4.55019 678 ft 112 kts 66°
2026-04-18 19:37 51.54763 4.56191 779 ft 116 kts 61°
2026-04-18 19:37 51.55103 4.57302 699 ft 102 kts 61°
2026-04-18 19:38 51.55658 4.57744 490 ft 93 kts 327°
2026-04-18 19:38 51.55853 4.56817 295 ft 89 kts 273°
2026-04-18 19:38 51.55658 4.55958 56 ft 71 kts 246°
2026-04-18 19:38 51.55499 4.55337 31 ft 60 kts 247°
2026-04-18 19:39 51.55307 4.54710 210 ft 62 kts 244°
2026-04-18 19:39 51.55065 4.54100 331 ft 74 kts 237°
2026-04-18 19:39 51.54734 4.53340 490 ft 89 kts 235°
2026-04-18 19:39 51.54511 4.52402 684 ft 95 kts 268°
2026-04-18 19:40 51.54572 4.51330 860 ft 96 kts 301°
2026-04-18 19:40 51.55097 4.50694 1061 ft 93 kts 336°
2026-04-18 19:40 51.55634 4.50212 1368 ft 89 kts 327°
2026-04-18 19:40 51.56160 4.49683 1601 ft 91 kts 326°
2026-04-18 19:41 51.56710 4.49038 1656 ft 107 kts 326°
2026-04-18 19:41 51.57408 4.48546 1642 ft 113 kts 354°
2026-04-18 19:41 51.58072 4.48886 1836 ft 98 kts 34°
2026-04-18 19:41 51.58476 4.49793 1833 ft 106 kts 58°
2026-04-18 19:42 51.58847 4.50867 1771 ft 109 kts 54°
2026-04-18 19:42 51.59231 4.51902 1817 ft 106 kts 58°
2026-04-18 19:42 51.59312 4.53090 1869 ft 112 kts 95°
2026-04-18 19:42 51.59205 4.53910 1863 ft 114 kts 96°
2026-04-18 19:43 51.59050 4.55204 1791 ft 119 kts 95°
2026-04-18 19:43 51.58866 4.56543 1713 ft 123 kts 103°
2026-04-18 19:43 51.58317 4.58133 1701 ft 123 kts 120°
2026-04-18 19:43 51.57824 4.59280 1625 ft 126 kts 114°
2026-04-18 19:44 51.57628 4.60182 1550 ft 125 kts 99°
2026-04-18 19:44 51.57456 4.61531 1510 ft 122 kts 92°
2026-04-18 19:44 51.57317 4.64214 1397 ft 121 kts 84°
2026-04-18 19:45 51.57415 4.65480 1476 ft 110 kts 71°
2026-04-18 19:45 51.57626 4.66684 1432 ft 113 kts 68°
2026-04-18 19:45 51.57808 4.67941 1423 ft 113 kts 79°
2026-04-18 19:45 51.57917 4.69205 1366 ft 116 kts 76°
2026-04-18 19:46 51.58067 4.70455 1377 ft 114 kts 71°
2026-04-18 19:46 51.58449 4.71499 1360 ft 109 kts 37°
2026-04-18 19:46 51.59147 4.71884 1308 ft 107 kts 359°
2026-04-18 19:46 51.59880 4.71828 1330 ft 106 kts 356°
2026-04-18 19:47 51.60619 4.71696 1382 ft 103 kts 352°
2026-04-18 19:47 51.61312 4.71537 1495 ft 100 kts 359°
2026-04-18 19:47 51.62039 4.71602 1463 ft 105 kts
2026-04-18 19:47 51.62785 4.71493 1431 ft 107 kts 348°
2026-04-18 19:48 51.63484 4.71099 1443 ft 108 kts 336°
2026-04-18 19:48 51.64160 4.70553 1424 ft 109 kts 335°
2026-04-18 19:48 51.64840 4.70033 1424 ft 108 kts 336°
2026-04-18 19:48 51.65496 4.69420 1439 ft 108 kts 329°
2026-04-18 19:49 51.66134 4.68720 1337 ft 116 kts 328°
2026-04-18 19:49 51.66822 4.68052 1301 ft 115 kts 334°
2026-04-18 19:49 51.67536 4.67580 1367 ft 108 kts 340°
2026-04-18 19:49 51.68252 4.67138 1355 ft 108 kts 341°
2026-04-18 19:50 51.68953 4.66702 1332 ft 111 kts 338°
2026-04-18 19:50 51.69653 4.66206 1343 ft 111 kts 338°
2026-04-18 19:50 51.70334 4.65633 1363 ft 110 kts 330°
2026-04-18 19:50 51.70961 4.64930 1333 ft 113 kts 327°
2026-04-18 19:51 51.71611 4.64257 1372 ft 109 kts 331°
2026-04-18 19:51 51.72252 4.63603 1374 ft 110 kts 327°
2026-04-18 19:51 51.72834 4.62795 1386 ft 110 kts 321°
2026-04-18 19:51 51.73407 4.61991 1398 ft 109 kts 321°
2026-04-18 19:52 51.73941 4.61110 1401 ft 111 kts 313°
2026-04-18 19:52 51.74370 4.60088 1467 ft 107 kts 307°
2026-04-18 19:52 51.74778 4.59086 1511 ft 107 kts 310°
2026-04-18 19:52 51.75245 4.58131 1536 ft 108 kts 313°
2026-04-18 19:53 51.75741 4.57183 1520 ft 111 kts 315°
2026-04-18 19:53 51.76275 4.56278 1526 ft 111 kts 320°
2026-04-18 19:53 51.77550 4.55163 1681 ft 102 kts 346°
2026-04-18 19:54 51.78246 4.54952 1715 ft 103 kts 351°
2026-04-18 19:54 51.78964 4.54856 1760 ft 102 kts
2026-04-18 19:54 51.79643 4.55223 1798 ft 104 kts 22°
2026-04-18 19:54 51.80284 4.55724 1864 ft 104 kts 23°
2026-04-18 19:55 51.80959 4.56220 1844 ft 108 kts 20°
2026-04-18 19:55 51.81651 4.56683 1888 ft 105 kts 19°
2026-04-18 19:55 51.82254 4.57318 1921 ft 110 kts 52°
2026-04-18 19:55 51.82324 4.58579 1911 ft 123 kts 102°
2026-04-18 19:56 51.81784 4.59689 1900 ft 131 kts 145°
2026-04-18 19:56 51.80876 4.60004 1830 ft 136 kts 187°
2026-04-18 19:56 51.80044 4.59416 1849 ft 130 kts 225°
2026-04-18 19:56 51.79595 4.58203 1818 ft 124 kts 265°
2026-04-18 19:57 51.79759 4.56978 1915 ft 108 kts 312°
2026-04-18 19:57 51.80376 4.56549 2029 ft 99 kts
2026-04-18 19:57 51.80907 4.57246 2036 ft 112 kts 59°
2026-04-18 19:57 51.80920 4.58557 1986 ft 126 kts 107°
2026-04-18 19:58 51.80301 4.59600 1941 ft 134 kts 150°
2026-04-18 19:58 51.79395 4.59830 1928 ft 135 kts 190°
2026-04-18 19:58 51.78476 4.59456 1875 ft 136 kts 192°
2026-04-18 19:58 51.77545 4.59372 1859 ft 135 kts 166°
2026-04-18 19:59 51.76637 4.59739 1810 ft 136 kts 181°
2026-04-18 19:59 51.75710 4.59430 1802 ft 134 kts 195°
2026-04-18 19:59 51.74820 4.59087 1805 ft 133 kts 196°
2026-04-18 19:59 51.73907 4.58925 1808 ft 132 kts 179°
2026-04-18 20:00 51.72989 4.58992 1805 ft 132 kts 177°
2026-04-18 20:00 51.72066 4.59064 1804 ft 133 kts 177°
2026-04-18 20:00 51.71144 4.59136 1801 ft 133 kts 177°
2026-04-18 20:00 51.70224 4.59213 1801 ft 132 kts 177°
2026-04-18 20:01 51.69308 4.59284 1803 ft 132 kts 177°
2026-04-18 20:01 51.68390 4.59345 1795 ft 132 kts 178°
2026-04-18 20:01 51.67474 4.59413 1795 ft 132 kts 177°
2026-04-18 20:01 51.66565 4.59477 1797 ft 132 kts 177°
2026-04-18 20:02 51.65648 4.59541 1795 ft 132 kts 177°
2026-04-18 20:02 51.64727 4.59610 1795 ft 132 kts 177°
2026-04-18 20:02 51.63819 4.59677 1697 ft 130 kts 178°
2026-04-18 20:02 51.62900 4.59748 1494 ft 132 kts 178°
2026-04-18 20:03 51.61990 4.59820 1329 ft 130 kts 178°
2026-04-18 20:03 51.61086 4.59897 1148 ft 130 kts 178°
2026-04-18 20:03 51.60197 4.59966 974 ft 129 kts 178°
2026-04-18 20:03 51.59303 4.60040 827 ft 127 kts 178°
2026-04-18 20:04 51.58445 4.60118 749 ft 120 kts 178°
2026-04-18 20:04 51.57629 4.60205 703 ft 113 kts 177°
2026-04-18 20:04 51.56863 4.60229 703 ft 106 kts 194°
2026-04-18 20:04 51.56245 4.59631 666 ft 103 kts 242°
2026-04-18 20:05 51.56120 4.58572 490 ft 93 kts 270°
2026-04-18 20:05 51.56045 4.57530 277 ft 93 kts 241°
2026-04-18 20:05 51.55849 4.56655 188 ft 70 kts 258°
2026-04-18 20:05 51.55666 4.55964 62 ft 62 kts 251°
2026-04-18 20:06 51.55518 4.55412 32 ft 43 kts 248°
2026-04-18 20:06 51.55426 4.55068 33 ft 25 kts 249°
2026-04-18 20:06 51.55370 4.54863 32 ft 15 kts 240°
2026-04-18 20:06 51.55372 4.54787 32 ft 7 kts 327°
2026-04-18 20:07 51.55415 4.54779 33 ft 3 kts 339°
2026-04-18 20:07 51.55427 4.54784 32 ft 0 kts 52°